カタログに戻る

FENGYUN 1C DEB

運用中SSO
NORAD 30709·DEBRIS·🇨🇳 China

打ち上げ May 10, 1999 から Taiyuan Satellite Launch Center

Loading…

次のパス (今後24時間)

TLE

最新Source: Space-Track

元期: Sep 14, 2026, 09:35 UTC

1 30709U 99025ART 26257.39992107  .00002218  00000-0  10384-2 0  9997
2 30709  99.1586 249.1649 0079151 206.4041 153.3090 14.19681146999058

AllMySatでFENGYUN 1C DEBをリアルタイム追跡

Download on the App Store